Regional Weather Roundup
Issued by NWS Green Bay, WI

Home | Current Version | Previous Version | Text Only | Print | Product List | Glossary On
Versions: 1 2 3 4 5 6 7 8 9 10 11 12 13 14 15 16 17 18 19 20 21 22 23 24 25 26 27 28 29 30 31 32 33 34 35 36 37 38 39 40 41 42 43 44 45 46 47 48 49 50
000
ASUS43 KGRB 240410
RWRGRB

NORTH-CENTRAL AND NORTHEAST WISCONSIN REGIONAL WEATHER ROUNDUP
NATIONAL WEATHER SERVICE GREEN BAY WI
1100 PM CDT WED APR 23 2014

WIZ005-009-010>012-018-019-240500-
NORTH CENTRAL WISCONSIN

CITY           SKY/WX    TMP DP  RH WIND       PRES   REMARKS
IRONWOOD       CLOUDY    48  23  37 S8        30.00R
MANITOWISH WTR CLOUDY    42  25  50 CALM      30.04R
ARBOR VITAE    CLOUDY    44  19  36 S6        30.05S
EAGLE RIVER    CLOUDY    42  10  27 S5        30.06R
LAND O LAKES   CLOUDY    43  15  31 S7        30.06S
RHINELANDER    CLOUDY    42  14  32 SE8       30.07R
PHILLIPS       LGT RAIN  44  28  54 S14       30.04R
ANTIGO         CLOUDY    39  20  46 SE8       30.09R
TOMAHAWK       CLOUDY    42  17  36 SE5       30.06S
MERRILL        CLOUDY    43  23  44 SE12      30.07S
$$

WIZ013-073-240500-
NORTHEAST WISCONSIN

CITY           SKY/WX    TMP DP  RH WIND       PRES   REMARKS
IRON MOUNTAIN  CLOUDY    40  15  36 SE3       30.08S
MARINETTE      CLOUDY    36  23  60 CALM      30.11R
OCONTO         CLOUDY    38  20  47 CALM      30.11R
$$

WIZ017-030-035>037-045-240500-
CENTRAL WISCONSIN

CITY           SKY/WX    TMP DP  RH WIND       PRES   REMARKS
MEDFORD        CLOUDY    43  27  52 SE6       30.03F
WAUSAU         CLOUDY    44  26  49 E10       30.06R
MOSINEE        CLOUDY    43  28  56 E12       30.07S
MARSHFIELD     LGT RAIN  42  33  70 SE9       30.04R
WISC RAPIDS    LGT RAIN  41  33  73 E8        30.06S
STEVENS POINT  CLOUDY    42  23  47 E6        30.07S
WAUPACA        CLOUDY    45  21  39 E6        30.09R
SHAWANO        CLOUDY    43  15  31 CALM      30.11R
CLINTONVILLE   CLOUDY    41  10  28 SE3       30.11R
$$

WIZ038-039-048-051-240500-
FOX VALLEY

CITY           SKY/WX    TMP DP  RH WIND       PRES   REMARKS
NWS GREEN BAY  CLOUDY    41  15  35 CALM      30.10S
APPLETON       MOCLDY    43   3  19 E7        30.09R
OSHKOSH        CLOUDY    42   9  25 SE7       30.08R
FOND DU LAC    CLOUDY    42   4  20 E8        30.08S
$$

WIZ022-050-052-240500-
EAST CENTRAL WISCONSIN

CITY           SKY/WX    TMP DP  RH WIND       PRES   REMARKS
STURGEON BAY   CLOUDY    39  12  33 E5        30.11S
MANITOWOC      CLOUDY    39  14  36 CALM      30.10F
SHEBOYGAN      CLOUDY    38  17  42 CALM      30.09S
$$

LMZ563-521-522-541>543-240500-
LAKESHORE

STATION/POSITION TIME  TEMP    WIND        PRES    VSBY  WAVE
                       AIR SEA DIR/SP/G                  HT/PER
                 (UTC) (F)     (DEG/KT/KT) (MB)    (MI)  (FT/S)
SHEBOYGAN LKSHOR 0400   39      10/  4/  5 1019.7F
KEWAUNEE LKSHORE 0400   40      40/  5/  6 1019.9S
TWO RIVERS CG    0300   40                   N/A     3/8
NORTHPORT PIER   0400   35      CALM  /  2 1020.0S
SISTER BAY LKSHO 0400   37        CALM       N/A
MENOMINEE LKSHOR 0400   37      90/  4/  4 1020.2S
$$



USA.gov is the U.S. government's official web portal to all federal, state and local government web resources and services.